Tracking 20942 objects as of 13-Jul-2020
HD Live streaming from Space Station
objects crossing your sky now

RAAVANA1

Track RAAVANA1 now!
10-day predictions
RAAVANA1 is classified as:


NORAD ID: 44330
Int'l Code: 1998-067QF
Perigee: 395.9 km
Apogee: 404.2 km
Inclination: 51.6 °
Period: 92.4 minutes
Semi major axis: 6771 km
RCS: Unknown
Launch date: November 20, 1998
Source: Democratic Socialist Republic of Sri Lanka (LKA)
Launch site: TYURATAM MISSILE AND SPACE COMPLEX (TTMTR)

Uplink (MHz):
Downlink (MHz): 437.375
Beacon (MHz): 437.375
Mode: 4800bps GMSK CW
Call sign: JG6YLE
Status: Active

aabbcc
Your satellite tracking list
Your tracking list is empty




NASA's NSSDC Master Catalog

Two Line Element Set (TLE):
1 44330U 98067QF  20195.43938472 +.00005814 +00000-0 +82070-4 0  9990
2 44330 051.6361 203.9931 0006175 093.7032 266.4667 15.58182973061034
Source of the keplerian elements: AFSPC